This demonstration page uses our WeatherBlox Daily Observations layout. Learn more.

Left ArrowRight Arrow

38.20091, -84.87328

Hourly Observations for July 19, 2015

Temp ( °F °C ) Dew Point ( °F °C ) Humidity (%) Winds ( mph kmh ) Pressure ( in mb ) Visibility ( mi km ) Precip ( " mm )
12:53 am 00:53 Clear 81 27.2 75 23.9 82 82 Calm 29.96 1015 8 13 0.00 0.00
1:53 am 01:53 Clear 79 26.1 74 23.3 85 85 Calm 29.95 1014 8 13 0.00 0.00
2:53 am 02:53 Mostly Cloudy with Mist and Fog 77 25 74 23.3 90 90 E 5 7 29.94 1014 6 10 0.00 0.00
3:53 am 03:53 Partly Cloudy 74 23.3 70 21.1 88 88 E 7 11 29.94 1014 10 16 0.00 0.00
4:53 am 04:53 Clear 73 22.8 69 20.6 87 87 SSE 3 6 29.92 1013 10 16 0.00 0.00
5:53 am 05:53 Clear 72 22.2 69 20.6 91 91 Calm 29.91 1013 10 16 0.00 0.00
6:53 am 06:53 Sunny 73 22.8 69 20.6 87 87 Calm 29.91 1013 8 13 0.00 0.00
7:53 am 07:53 Sunny with Mist and Fog 76 24.4 73 22.8 91 91 SW 6 9 29.94 1014 5 8 0.00 0.00
8:53 am 08:53 Sunny 81 27.2 74 23.3 79 79 WSW 6 9 29.94 1014 8 13 0.00 0.00
9:53 am 09:53 Sunny 82 27.8 75 23.9 79 79 WSW 7 11 29.95 1014 8 13 0.00 0.00
10:53 am 10:53 Sunny 83 28.3 75 23.9 77 77 SW 7 11 29.94 1014 9 14 0.00 0.00
11:53 am 11:53 Sunny 87 30.6 76 24.4 70 70 VRB 7 11 29.95 1014 9 14 0.00 0.00
12:53 pm 12:53 Mostly Sunny 87 30.6 76 24.4 70 70 WSW 7 11 29.96 1015 9 14 0.00 0.00
1:53 pm 13:53 Partly Cloudy 89 31.7 75 23.9 63 63 VRB 7 11 29.94 1014 10 16 0.00 0.00
2:38 pm 14:38 Partly Cloudy with Thunderstorms 86 30 75 23.9 70 70 WNW 8 13 29.94 1014 9 14 0.00 0.00
2:53 pm 14:53 Partly Cloudy with Nearby Thunderstorms 85 29.4 75 23.9 72 72 SSW 7 11 29.92 1013 9 14 0.00 0.00
3:02 pm 15:02 Partly Cloudy with Thunderstorms 85 29.4 75 23.9 72 72 Calm 29.91 1013 9 14 0.00 0.00
3:20 pm 15:20 Partly Cloudy with Nearby Thunderstorms 87 30.6 76 24.4 70 70 WSW 6 9 29.85 1011 9 14 0.00 0.00
3:29 pm 15:29 Partly Cloudy with Thunderstorms 86 30 76 24.4 72 72 SSW 6 9 29.85 1011 8 13 0.00 0.00
3:53 pm 15:53 Mostly Cloudy with Thunderstorms 82 27.8 76 24.4 82 82 S 14 22 29.90 1013 7 11 0.01 0.25
4:12 pm 16:12 Mostly Cloudy with Nearby Thunderstorms 76 24.4 70 21.1 82 82 SSW 16 26 29.91 1013 10 16 0.00 0.00
4:29 pm 16:29 Partly Cloudy 76 24.4 71 21.7 85 85 S 10 17 29.88 1012 10 16 0.00 0.00
4:53 pm 16:53 Sunny 80 26.7 72 22.2 76 76 SSW 7 11 29.90 1013 10 16 0.00 0.00
5:53 pm 17:53 Sunny 82 27.8 72 22.2 72 72 SW 5 7 29.89 1012 10 16 0.00 0.00
6:20 pm 18:20 Partly Cloudy with Nearby Thunderstorms 82 27.8 73 22.8 74 74 S 7 11 29.88 1012 9 14 0.00 0.00
6:38 pm 18:38 Mostly Cloudy 81 27.2 73 22.8 77 77 SSW 12 19 29.88 1012 10 16 0.00 0.03
6:53 pm 18:53 Mostly Cloudy 82 27.8 73 22.8 74 74 SSW 13 20 29.88 1012 10 16 0.00 0.03
7:53 pm 19:53 Mostly Sunny 80 26.7 69 20.6 69 69 WNW 6 9 29.88 1012 10 16 0.00 0.00
8:53 pm 20:53 Sunny 77 25 70 21.1 79 79 SW 8 13 29.87 1012 10 16 0.00 0.00
9:53 pm 21:53 Clear 76 24.4 70 21.1 82 82 Calm 29.90 1013 10 16 0.00 0.00
10:53 pm 22:53 Clear 75 23.9 70 21.1 84 84 Calm 29.91 1013 10 16 0.00 0.00
11:53 pm 23:53 Clear 73 22.8 70 21.1 90 90 Calm 29.91 1013 10 16 0.00 0.00

Powered by AerisWeather